Regional Weather Roundup
Issued by NWS Goodland, KS

Home | Current Version | Previous Version | Text Only | Print | Product List | Glossary Off
Versions: 1 2 3 4 5 6 7 8 9 10 11 12 13 14 15 16 17 18 19 20 21 22 23 24 25 26 27 28 29 30 31 32 33 34 35 36 37 38 39 40 41 42 43 44 45 46 47 48 49 50

000
ASUS43 KGLD 012159
RWRGLD

GOODLAND FORECAST AREA HOURLY WEATHER ROUNDUP
NATIONAL WEATHER SERVICE GOODLAND KS
400 PM MDT SAT AUG 01 2015

...OFFICIAL OBSERVATIONS...

CITY           SKY/WX    TMP DP  RH WIND       PRES   REMARKS
GOODLAND KS    SUNNY     89  50  26 SE14G28   30.04F
HILL CITY KS   SUNNY     93  58  30 S12G18    29.99F
IMPERIAL NEB   SUNNY     93  50  23 S17       30.00F
MCCOOK NEB     MOSUNNY   90  59  35 SE13      29.99F
AKRON CO       MOSUNNY   91  51  25 SE18G24   30.05F
BURLINGTON CO  SUNNY     87  52  29 S16G23    30.07F
LIMON CO       SUNNY     87  49  26 SE9G17    30.11F
$$

...UNOFFICIAL OBSERVATIONS...

CITY           SKY/WX    TMP DP  RH WIND       PRES   REMARKS
COLBY KS       SUNNY     91  57  31 SE14      30.05S
NORTON KS      MOSUNNY   91  55  29 S9        30.00
SHARON SPRINGS   N/A     89  58  35 SE13G23     N/A
KIT CARSON CO    N/A     89  58  35 MISG        N/A
YUMA CO          N/A     89  58  34 SW5G12      N/A
$$



USA.gov is the U.S. government's official web portal to all federal, state and local government web resources and services.